Regional Weather Roundup
Issued by NWS Huntsville, AL

Home | Current Version | Previous Version | Text Only | Print | Product List | Glossary On
Versions: 1 2 3 4 5 6 7 8 9 10 11 12 13 14 15 16 17 18 19 20 21 22 23 24 25 26 27 28 29 30 31 32 33 34 35 36 37 38 39 40 41 42 43 44 45 46 47 48 49 50
000
ASUS44 KHUN 081010
RWRHUN

WEATHER ROUNDUP FOR THE TENNESSEE VALLEY
NATIONAL WEATHER SERVICE HUNTSVILLE AL
400 AM CST MON FEB 08 2016

ALZ001>004-081100-
NORTHWEST ALABAMA

CITY           SKY/WX    TMP DP  RH WIND       PRES   REMARKS
COURTLAND HCN    N/A     45 N/A N/A W9          N/A
RUSSELLVILLE     N/A     45 N/A N/A MISG        N/A
SHOALS AIRPORT CLOUDY    45  31  58 W8        29.88F
SHOALS TVA RES   N/A     45 N/A N/A MISG        N/A
$$

ALZ005>007-016-081100-
NORTH CENTRAL ALABAMA

CITY           SKY/WX    TMP DP  RH WIND       PRES   REMARKS
CULLMAN AG STN   N/A     39 N/A N/A SW6         N/A  WCI  35
DECATUR AP     CLOUDY    45  32  60 W9        29.87F
HUNTSVILLE AP  CLOUDY    45  30  55 W8        29.86S
HUN NWS/UAH      N/A     44  29  55 W5          N/A
MERIDIANVILLE  CLOUDY    43  28  56 W3        29.86S
REDSTONE ARSN  CLOUDY    44  31  60 W5        29.86S
VINEMONT AP    PTSUNNY   41  28  60 W3        29.89S
$$

ALZ008>010-081100-
NORTHEAST ALABAMA

CITY           SKY/WX    TMP DP  RH WIND       PRES   REMARKS
ALBERTVILLE    PTCLDY    41  32  70 W10       29.85S
FORT PAYNE     CLEAR     28  25  86 CALM      29.85S
SCOTTSBORO AP  CLOUDY    39  30  70 SW3       29.86S
SCOTTSBORO HCN   N/A     36 N/A N/A MISG        N/A
$$

TNZ076-096-097-081100-
SOUTHEASTERN MIDDLE TENNESSEE

CITY           SKY/WX    TMP DP  RH WIND       PRES   REMARKS
TULLAHOMA      MOCLDY    37  27  65 SW5       29.83F WCI  34
WINCHESTER     CLOUDY    41  28  60 W5        29.84F
$$

...SURROUNDING SITES...

CITY           SKY/WX    TMP DP  RH WIND       PRES   REMARKS
ATLANTA        PTCLDY    38  21  50 SW6       29.86F WCI  33
ANNISTON       PTCLDY    37  27  67 W7        29.89F WCI  32
BIRMINGHAM     PTCLDY    42  28  57 W6        29.92S
CHATTANOOGA    MOCLDY    43  26  51 SW8       29.83F
DALTON         NOT AVBL
GADSDEN        PTCLDY    36  28  73 SW7       29.88F WCI  30
GOLDEN TRNGL   CLEAR     45  28  53 W3        29.91F
HALEYVILLE     MOCLDY    42  30  62 W5        29.89F
JACKSON TN     CLEAR     42  24  49 W10       29.86F
MEMPHIS        CLEAR     44  24  45 W12       29.93S
NASHVILLE      MOCLDY    41  28  60 S6        29.80F
ROME           PTCLDY    32  28  85 SW3       29.84F
TUPELO         CLOUDY    45  31  58 SW6       29.91F
TUSCALOOSA     CLEAR     38  29  70 S5        29.95R WCI  34
$$

...GULF COAST WEATHER...

CITY           SKY/WX    TMP DP  RH WIND       PRES   REMARKS
GULFPORT       CLEAR     41  33  73 W3        30.06F
PASCAGOULA     PTCLDY    44  35  70 W5        30.06F
MOBILE         CLEAR     41  34  76 SW5       30.05F
GULF SHORES    SUNNY     47  36  63 W12G18    30.06F
DESTIN         CLEAR     51  38  60 VRB5      30.04F
PANAMA CITY    PTCLDY    43  37  79 NW5       30.04F
APPALACHICOLA  CLEAR     40  35  83 NW3       30.05F
$$




USA.gov is the U.S. government's official web portal to all federal, state and local government web resources and services.